Location: Bjelajci
(45.0103°N, 16.1758°E)
Time: 18:43:39
(UTC+00:00)

IDEFIX/ARIANE 42P - Pass Details

Date: 14 July 2020
Orbit: 784 x 804 km, 98.4° (Epoch: 05 August)

Event Time Altitude Azimuth Distance (km) Brightness Sun altitude
Rises 01:53:05 0° 17° (NNE) 3,291 7.1 -12.7°
Reaches altitude 10° 01:55:28 10° 21° (NNE) 2,356 6.3 -12.5°
Maximum altitude 02:00:35 57° 100° (E) 922 3.1 -11.9°
Drops below altitude 10° 02:05:39 10° 179° (S) 2,336 4.6 -11.2°
Enters shadow 02:06:34 - 182° (S) 2,693 4.9 -11.1°
